Погода в Вольске

Россия / Саратовская область     52°02′45″N   47°23′14″E
темп.,
°C
ветер,
м/с
пор.,
м/с
влажн.,
%
обл.,
%
осадки,
мм/ч
давл.,
гПа
погр.,
м
24 июля, сб
сб2401:00+17сз33600 0.0 100727
04:00+16зсз22610 0.0 100814
07:00+18з24580 0.0 1008153
10:00+24зсз34428 0.0 10091064
13:00+27зсз5636100 0.0 10082939
16:00+25зсз673997 0.0 10092060
19:00+23зсз344930 0.0 1011543
22:00+20с4957100 0.1 1013262
25 июля, вс
вс2501:00+19ссз235998 0.0 101474
04:00+16с336729 0.0 101673
07:00+16ссв34683 0.0 1018195
10:00+21св44480 0.0 10191163
13:00+24св333731 0.0 10202195
16:00+24ссв1236100 0.0 10201790
19:00+22с354655 0.0 1020192
22:00+17с225412 0.0 102118
26 июля, пн
пн2601:00+17с225690 0.0 102216
04:00+18св235199 0.0 102373
07:00+18св235151 0.0 1024145
10:00+22св223698 0.0 1024948
13:00+25св233056 0.0 10242597
16:00+25ссз54347 0.0 10231788
19:00+23с33393 0.0 1022805
22:00+17с225452 0.0 102312
27 июля, вт
вт2701:00+16с22560 0.0 102311
04:00+15ссз22540 0.0 102212
07:00+17ссз22510 0.0 102395
10:00+24ссз23335 0.0 10221002
13:00+27ссз45275 0.0 10212693
16:00+28ссз552850 0.0 10192926
19:00+26ссз563511 0.0 10191014
22:00+20ссз345218 0.0 101939
28 июля, ср
ср2801:00+18ссз34615 0.0 102052
04:00+17ссз22695 0.0 101913
07:00+19ссз11635 0.0 1020105
10:00+25з124696 0.0 1019841
13:00+28сз353545 0.0 10172528
16:00+28с463478 0.1 10162328
19:00+25сз474153 0.0 1015409
22:00+21зсз45555 0.0 101573